Find Starlink 32424

NORAD ID: 61548 Int'l Des: 2024-184 Owner: SPXS Country: US Constellation: starlink operational
LEOCIRCULAR

Live Position

Loading 3D Globe...

About Starlink 32424

Description loading...

Upcoming Passes

Passes for default location (London). Set your location on the main map for personalized predictions.

Altitude History

Loading altitude history...

Two-Line Element Set

1 61548U 24184S 26127.20739027 .00003248 00000-0 12167-3 0 9998
2 61548 53.1595 102.3222 0001433 106.8152 253.3006 15.30215418 87464
Epoch: May 7, 2026 • Age: 11 hours

Current Status

Altitude 476.3 km
Velocity 7.63 km/s
Sub-Earth Point 28.18°N, 16.58°E
Launch Date Oct 15, 2024
Age 1.5 years
Type internet

Technical Details

Classification Payload
Mass 730.00 kg
Dry Mass 700.00 kg
Total Mass 730.00 kg
Length 0.30 m
Diameter 4.10 m
Span 29.00 m
Shape Box + pan
Manufacturer SPXS
Bus Type Starlink V2M
Phase Status In Orbit
Owner/State SPXS/US

Most Searched